Wind_Speed
64 65 65 64 64 64 64 64 63 63 63 63 62 62 62 63 65 67 70 72 73 74 76 78 82 85 87 88 87 86 85 83 81 80 82 83 81 79 81 81 80 79 79 79 79 78 77 76 75 74 74 73 73 72 72 70 69 70 72 73 72 70 67 66 64 64 63 62 61 59 58 58 58 59 59 61 61 62 62 62 59 57 58 58 58 57 56 56
68 68 68 69 68 68 68 67 67 66 66 65 65 64 64 64 64 65 67 70 72 73 75 76 79 81 84 86 88 89 88 86 83 83 86 84 79 80 81 81 81 80 80 80 80 79 78 76 75 75 74 74 74 73 71 70 69 71 72 72 72 70 67 66 65 64 63 62 61 59 58 59 60 60 61 62 62 62 63 62 60 60 59 59 59 58 57 57
68 69 70 71 71 72 71 71 70 69 69 68 68 67 66 66 65 64 65 67 69 72 74 76 77 78 80 82 86 88 89 89 86 87 89 84 80 82 82 81 81 80 80 80 80 79 78 76 75 76 75 75 74 73 72 70 70 72 72 72 71 69 67 66 65 64 64 63 62 60 60 60 62 62 62 63 63 63 63 62 62 61 60 60 60 59 59 59
66 67 69 70 72 73 74 74 74 73 72 71 71 70 69 68 67 66 65 65 67 69 72 74 76 77 78 80 82 85 87 88 89 92 91 85 84 85 84 82 82 81 80 80 79 78 77 77 76 76 76 75 74 73 72 71 71 72 72 72 70 68 67 66 66 65 64 64 63 62 62 62 63 63 63 63 64 64 64 63 63 62 61 60 60 61 61 61
65 66 68 70 71 73 74 75 76 76 76 75 74 73 71 70 69 67 66 66 66 67 69 72 74 76 77 78 80 81 83 85 88 93 93 89 88 88 86 84 83 82 81 80 79 78 77 77 77 76 76 75 74 73 73 72 73 73 73 71 69 68 67 67 67 66 65 64 64 64 64 63 63 63 64 64 64 64 65 64 63 62 61 60 60 62 63 64
63 65 66 68 71 72 74 75 76 77 77 77 76 75 74 72 71 69 68 68 67 68 69 70 72 74 76 77 78 79 80 81 85 90 92 92 91 91 89 87 85 84 82 81 80 78 78 77 76 76 76 75 74 74 74 73 73 73 72 70 69 68 68 68 67 66 65 65 65 64 64 64 63 63 64 65 65 65 66 65 64 62 61 61 61 63 64 65
63 64 65 67 69 71 74 75 76 77 78 78 78 77 76 74 72 71 70 69 69 69 70 70 70 72 74 76 77 78 78 80 83 85 88 90 92 93 92 89 88 86 84 83 81 80 78 77 76 76 75 74 74 74 74 73 73 73 71 70 69 69 68 68 67 66 66 65 65 65 65 64 63 63 64 65 66 66 66 65 64 63 63 62 63 64 66 67
65 65 67 68 68 70 72 75 76 77 77 77 77 77 77 76 74 73 71 70 70 71 71 72 71 71 72 73 75 76 76 79 81 82 83 85 88 92 93 92 90 88 86 84 83 81 79 78 77 76 75 74 75 74 73 72 71 72 71 70 69 69 68 67 66 66 65 65 65 66 65 64 63 64 65 66 66 66 65 65 64 64 63 63 64 65 67 68
66 67 67 69 69 69 70 73 75 76 77 76 76 77 77 76 75 74 72 71 71 72 73 73 72 71 71 72 73 73 76 80 79 79 81 82 84 87 91 93 92 91 89 87 84 82 80 80 79 78 76 75 75 73 72 70 71 72 71 69 69 68 68 67 66 65 65 65 66 67 65 64 63 64 65 66 66 65 66 65 65 65 64 64 64 65 68 69
67 67 67 67 69 69 69 70 73 75 76 76 76 76 76 76 75 74 73 72 72 73 74 74 73 72 71 71 71 72 75 78 77 78 79 79 81 83 86 90 92 93 91 89 86 84 83 83 81 80 78 76 74 72 70 70 71 72 70 69 69 68 68 67 66 66 66 66 67 67 65 64 64 64 65 65 65 65 65 65 65 65 65 64 64 65 68 68
68 67 67 66 66 67 68 69 71 73 75 76 76 76 76 75 75 74 72 72 72 73 73 74 74 73 72 72 71 72 75 75 75 77 77 77 79 80 82 85 89 91 92 91 88 87 86 84 83 81 79 77 75 73 70 70 72 72 71 70 69 69 68 67 67 68 68 68 69 68 65 65 65 65 65 64 65 65 65 64 64 65 65 64 63 65 67 67
68 67 66 65 64 65 65 67 69 71 73 74 75 76 76 76 74 73 72 72 72 73 73 73 73 74 74 72 73 74 74 72 73 74 75 75 76 77 79 81 84 88 90 91 91 90 88 86 83 81 79 77 75 73 71 72 73 73 72 71 70 69 69 69 69 70 69 68 69 67 66 66 65 65 64 64 64 64 64 63 63 64 64 63 63 64 65 65
67 67 66 65 64 63 63 64 66 69 71 72 74 75 75 75 74 73 72 72 72 72 72 71 72 73 73 73 76 75 72 70 71 72 73 74 75 75 76 78 81 83 87 90 92 92 90 86 83 80 79 77 76 74 73 73 74 74 73 72 71 70 71 72 72 70 68 68 68 66 66 66 65 65 64 62 62 63 62 62 62 63 62 62 61 63 64 64
66 66 65 64 63 63 62 62 64 66 69 71 73 74 75 74 73 72 72 71 72 71 71 70 70 72 72 74 77 74 70 70 71 72 74 74 74 75 75 76 78 80 83 87 90 91 89 86 83 81 79 77 76 75 74 75 75 75 74 73 72 73 74 74 71 69 69 68 67 66 67 66 65 65 64 62 62 62 61 61 61 60 60 59 60 62 63 63
65 65 64 64 63 62 62 62 62 64 67 70 72 74 74 73 72 72 71 71 71 70 70 70 70 71 71 75 77 72 71 72 74 75 74 74 74 73 74 75 76 78 81 83 86 87 88 86 84 82 80 78 77 76 76 76 76 76 74 73 75 76 75 72 70 69 68 67 66 67 67 66 65 64 63 61 61 60 60 60 60 59 59 59 61 62 62 62
65 64 63 63 63 62 62 63 62 62 65 68 71 73 73 72 72 71 70 70 70 69 69 69 70 70 71 75 75 71 72 75 76 74 72 72 72 72 73 74 74 76 77 80 81 83 85 85 85 83 81 80 78 78 77 76 76 75 74 75 78 77 73 71 70 69 67 65 66 67 66 65 64 62 60 59 59 59 59 59 60 60 59 59 60 61 62 62
65 64 63 63 63 63 63 63 63 63 64 67 69 71 72 73 72 71 70 70 70 69 69 69 70 69 71 74 72 71 74 76 76 73 71 71 70 70 71 71 73 74 74 76 77 79 81 83 85 84 83 82 81 79 76 74 74 74 75 78 79 75 72 71 70 68 66 64 65 65 64 62 60 59 59 58 59 59 59 59 59 59 58 58 60 62 62 62
65 64 64 64 64 63 63 63 64 64 64 66 68 68 70 71 71 71 71 70 70 69 69 68 68 68 69 72 71 72 74 75 74 72 70 70 68 67 68 70 72 72 72 72 73 76 78 80 83 84 85 84 81 77 74 74 74 76 78 79 77 74 72 70 69 67 64 62 61 62 61 60 59 59 60 60 60 59 57 57 57 57 57 58 60 61 62 61
66 65 65 65 65 64 64 64 64 64 65 66 67 67 68 69 69 69 70 69 68 67 67 67 67 67 69 71 70 71 72 72 72 70 69 68 66 65 66 68 70 70 70 69 70 72 74 77 80 82 84 82 80 77 75 76 77 78 79 78 76 73 71 70 68 66 62 60 60 61 62 61 60 60 60 59 58 57 56 56 57 57 57 58 60 61 61 61
67 67 66 66 66 65 65 65 65 65 65 66 66 67 67 67 66 66 66 65 66 66 66 66 66 67 68 69 68 69 70 71 72 70 69 68 65 63 63 65 67 68 67 67 68 69 71 74 76 78 80 81 80 79 78 79 79 79 78 76 74 72 70 69 68 65 61 59 60 60 61 60 59 60 59 57 55 55 56 57 58 58 59 60 61 62 61 61
68 67 67 67 67 66 66 66 65 65 65 65 66 67 67 65 63 63 63 63 65 65 65 65 66 67 67 67 67 68 68 70 72 70 68 68 64 61 60 61 63 64 65 66 67 67 68 70 72 74 77 79 80 80 81 82 81 80 78 75 73 71 70 68 65 61 59 58 58 57 57 58 59 59 57 56 55 55 57 59 59 60 61 62 62 61 61 61
67 67 67 67 67 67 66 66 65 65 65 65 66 67 65 62 61 62 62 64 65 65 66 66 66 68 68 68 67 67 67 69 71 70 67 66 62 59 58 58 59 62 64 65 65 64 64 64 67 72 75 77 78 79 81 82 80 78 75 72 70 69 67 64 60 57 56 55 54 54 55 56 58 58 57 56 55 55 58 60 61 62 62 62 61 60 60 61
67 67 67 68 67 67 66 65 65 65 65 65 65 63 62 61 62 63 64 65 66 66 66 67 68 70 69 68 67 67 68 70 71 69 66 65 62 59 58 57 59 62 63 62 62 60 58 60 66 71 72 72 73 75 77 77 75 72 68 66 64 62 60 57 55 53 52 52 52 53 53 55 57 57 56 55 56 57 58 60 61 61 61 60 59 59 59 58
66 67 67 66 66 65 64 64 64 65 64 63 61 60 61 63 64 65 66 67 67 67 67 69 70 70 68 67 66 67 69 71 70 67 65 65 64 61 59 59 60 61 61 60 58 56 57 63 67 68 67 67 68 69 70 68 66 63 59 57 56 55 55 54 53 52 51 51 52 52 52 54 56 55 53 54 57 59 58 57 57 57 57 56 56 55 55 55
64 65 65 64 64 64 63 63 64 64 62 60 59 60 62 64 65 66 67 67 67 67 68 69 70 70 68 66 65 67 69 70 69 67 66 65 64 62 60 60 60 58 58 58 56 56 59 62 62 61 61 61 62 63 62 59 57 54 52 51 52 53 54 53 52 51 51 51 51 51 52 54 53 53 52 52 56 57 55 54 53 52 52 52 51 50 50 51
61 62 62 62 62 62 62 63 64 63 61 60 61 62 63 65 66 67 67 67 68 68 68 69 70 70 67 64 67 69 69 69 69 68 66 66 65 63 62 60 58 57 56 56 55 57 58 57 56 56 56 56 56 56 55 53 51 48 47 49 52 53 54 53 52 51 50 50 50 50 52 53 51 50 50 50 53 55 53 51 48 47 47 46 46 46 46 47
59 60 61 62 61 62 63 63 63 63 61 62 63 64 65 67 67 67 66 67 68 68 69 70 71 69 66 67 70 69 69 70 69 67 67 66 65 63 62 60 58 57 55 53 53 54 54 54 53 53 52 52 52 51 50 48 46 45 46 50 53 54 54 53 51 50 49 48 49 50 51 52 49 48 48 48 50 51 49 45 43 42 41 42 41 41 42 44
57 58 59 59 58 58 59 59 59 60 60 62 63 65 66 67 67 66 66 68 68 68 69 70 70 68 67 69 71 70 71 71 69 67 67 66 64 63 61 58 57 57 53 50 51 53 52 52 52 51 50 49 49 50 49 47 45 46 48 51 54 55 54 52 50 48 47 48 49 50 50 49 47 46 46 45 46 46 43 41 39 39 39 39 39 39 40 41
54 53 53 52 50 50 51 51 52 54 56 58 61 63 64 64 64 65 65 67 67 68 69 69 68 67 67 68 70 71 71 70 70 69 67 65 64 63 61 59 58 56 52 51 53 53 52 53 52 50 50 49 50 51 49 47 47 49 51 53 55 54 52 50 47 47 47 48 49 49 48 47 46 44 42 41 41 41 40 38 37 37 38 38 39 40 40 40
46 45 44 43 43 42 43 44 46 48 51 53 56 57 57 58 60 61 62 63 64 65 66 66 65 65 64 66 68 69 68 68 69 67 66 65 65 65 64 62 60 55 52 52 52 51 52 51 49 47 48 50 51 49 47 47 48 51 52 53 53 52 51 48 46 46 47 48 48 47 47 46 43 40 38 38 38 38 38 37 37 38 38 40 40 40 41 41
38 37 37 37 37 37 39 40 43 45 46 48 48 49 50 52 53 55 56 57 57 58 59 59 59 59 60 63 65 65 65 66 65 64 64 64 64 64 63 61 57 52 50 51 50 50 50 48 47 48 49 49 48 46 46 47 49 51 51 51 51 51 50 48 46 46 47 47 47 47 46 45 40 37 36 36 37 38 39 38 38 37 38 40 41 41 42 42
32 32 32 33 33 35 37 38 40 40 41 41 42 43 45 46 47 48 50 50 51 53 53 53 53 55 58 62 63 63 63 62 62 62 62 62 62 62 61 59 54 50 51 51 50 51 50 49 50 50 50 48 46 46 47 48 49 50 50 50 50 50 50 47 46 46 47 48 48 48 45 42 39 37 36 37 38 38 39 38 38 37 38 40 42 42 43 43
28 28 28 29 31 33 34 36 36 37 37 38 40 41 42 42 44 46 47 49 50 51 52 53 56 57 58 59 60 61 62 61 61 60 59 60 61 62 60 57 53 53 55 55 53 52 52 51 51 50 48 47 46 47 48 49 50 51 51 51 50 50 49 47 47 47 48 50 49 47 43 40 39 38 37 38 40 39 38 38 39 39 40 41 42 42 43 44
24 25 26 28 29 31 32 33 34 35 37 38 39 40 41 45 47 48 50 51 51 52 54 57 59 59 58 57 57 58 59 60 60 59 57 57 58 59 58 55 54 55 57 56 53 53 54 53 51 49 48 47 48 49 50 52 54 54 53 52 51 50 49 48 48 49 51 51 48 44 41 40 40 39 38 39 40 39 38 38 39 40 41 42 42 43 44 45
22 23 25 26 28 29 30 32 34 36 37 38 40 43 47 49 50 52 53 54 55 56 57 58 58 58 58 57 57 57 58 60 60 58 57 57 57 57 56 55 55 56 56 54 52 53 54 53 51 50 49 49 51 53 54 55 55 53 52 50 50 49 49 49 49 50 51 49 46 43 42 42 41 40 39 40 41 39 39 39 39 41 42 44 45 45 45 45
21 22 24 26 27 29 31 33 35 37 39 42 46 50 52 53 54 55 56 56 57 58 58 58 57 57 56 57 57 59 60 61 59 57 57 58 59 59 58 57 57 57 57 55 54 54 54 52 51 50 50 52 55 55 55 55 53 52 51 50 50 50 50 49 49 49 50 48 45 44 43 43 43 41 41 42 42 40 40 40 40 42 45 47 48 47 46 45
21 22 24 26 29 31 34 36 39 42 46 50 54 55 55 56 58 58 58 59 59 58 58 58 57 56 55 56 57 58 58 58 58 57 58 58 58 57 56 56 56 57 57 57 56 55 54 53 52 52 53 55 56 55 53 52 51 51 51 51 51 50 49 48 48 49 49 48 46 45 45 44 44 43 42 42 42 40 40 41 42 44 47 49 49 48 47 46
22 23 26 28 32 35 38 42 45 49 54 56 57 57 58 60 61 60 60 61 61 60 60 59 58 57 56 56 56 56 55 56 56 55 56 56 54 54 53 53 54 55 56 56 55 54 55 54 53 54 55 56 54 53 51 51 50 50 51 52 50 49 48 48 48 49 50 49 48 47 46 45 44 43 43 43 42 42 42 43 45 47 49 50 50 49 49 48
23 25 28 32 35 39 43 48 52 56 59 60 59 60 62 64 64 62 62 62 62 61 61 60 59 58 56 55 55 55 55 55 54 54 53 52 52 52 52 52 53 54 54 53 52 53 54 53 52 54 55 53 52 51 50 49 50 51 52 51 49 49 49 49 50 50 50 49 48 47 46 44 44 44 44 44 44 44 45 46 48 49 49 50 50 49 48 48
27 30 33 36 39 44 48 53 58 61 62 61 61 63 65 65 64 63 62 61 60 58 58 59 58 57 55 54 54 54 55 55 54 53 52 51 51 51 51 51 52 53 53 53 53 53 53 52 51 52 52 50 50 49 48 49 50 52 52 51 50 50 49 50 51 50 50 49 47 46 45 44 45 46 46 46 46 47 48 49 49 49 49 50 50 48 47 47
32 34 37 40 44 48 54 58 62 63 62 62 63 65 66 65 64 62 60 58 57 56 55 56 57 56 55 54 54 54 53 52 52 52 51 51 51 51 51 51 52 53 53 54 54 54 54 54 52 51 50 49 48 48 49 49 50 51 52 51 51 50 51 51 51 51 50 49 48 46 46 46 47 47 47 48 49 49 49 50 50 50 50 50 49 48 47 47
36 39 42 46 49 54 59 62 63 63 62 62 64 64 65 64 62 59 57 56 56 55 55 55 55 55 54 53 53 52 50 49 49 49 49 50 50 50 50 51 52 52 53 54 54 56 57 56 54 53 53 51 51 51 51 51 51 51 53 53 52 52 52 52 52 52 51 50 48 47 47 47 48 48 50 51 50 50 50 50 51 51 51 50 48 47 47 45
41 44 47 51 55 59 61 63 62 62 62 62 63 63 63 62 59 56 54 55 55 54 54 53 53 53 53 53 52 51 49 47 47 47 47 47 48 49 49 50 51 51 52 53 55 57 59 58 56 55 55 54 54 53 53 53 52 53 54 54 53 54 53 53 53 52 51 50 49 49 49 49 50 51 53 52 51 51 51 51 51 51 51 50 47 46 45 41
44 47 51 55 59 61 63 62 61 61 61 61 60 60 58 57 55 52 51 52 53 53 53 52 51 51 52 53 53 52 50 48 47 47 46 46 46 46 48 49 50 51 52 53 55 57 59 57 56 55 54 53 53 53 53 53 53 54 55 55 55 55 55 54 54 53 52 52 52 52 51 50 51 53 53 53 52 51 51 51 51 51 51 49 46 44 42 38
45 49 53 58 60 61 62 61 60 59 59 58 56 54 52 51 50 49 48 49 50 52 53 52 51 50 51 52 52 52 51 51 50 49 48 48 47 47 47 49 50 52 53 54 56 57 58 57 55 54 53 52 53 53 54 54 55 55 56 56 57 57 56 56 55 54 53 53 53 52 52 52 53 54 53 53 52 51 51 51 51 50 50 48 45 43 41 37
44 47 52 57 59 60 60 59 58 56 55 53 52 50 48 46 46 45 46 46 48 50 52 53 52 50 50 50 51 51 51 51 51 51 51 51 50 50 50 51 52 53 54 55 56 56 56 55 54 54 53 53 54 55 55 56 56 56 57 57 57 57 56 56 55 54 54 53 53 53 53 54 54 54 53 52 51 51 51 51 50 49 48 46 45 43 40 37
44 46 50 53 55 56 56 56 54 52 50 49 48 46 45 44 44 44 44 45 46 47 49 50 51 50 50 50 50 50 51 50 50 51 51 51 51 52 52 53 53 54 55 55 56 56 56 55 54 54 54 54 54 55 56 56 56 57 58 58 58 57 56 55 55 54 55 55 55 55 55 56 55 53 52 51 51 51 50 49 48 47 46 45 44 42 40 37
45 47 50 51 53 53 53 53 51 49 48 48 47 47 46 45 45 45 45 45 44 44 45 47 49 50 51 51 51 51 51 51 50 51 51 51 52 52 53 53 54 54 55 55 55 55 56 56 55 55 55 55 56 57 57 57 57 58 58 58 58 57 57 56 56 56 57 57 57 58 57 56 54 52 51 51 50 48 46 46 46 45 44 44 43 41 39 37
47 49 51 52 52 52 53 52 51 50 50 49 48 47 46 45 45 45 44 43 43 43 44 45 47 49 50 51 51 52 52 52 51 51 52 52 53 53 53 54 54 55 55 56 56 56 56 57 56 57 57 58 58 58 58 58 58 58 58 58 58 57 57 57 58 59 59 59 59 59 57 55 53 51 50 49 48 46 44 44 44 43 42 41 40 39 38 37
47 49 52 53 53 53 53 52 51 50 49 48 46 44 42 42 42 42 42 41 41 42 43 44 45 47 48 49 50 51 52 52 52 53 54 55 55 55 55 55 55 56 56 57 57 58 58 58 58 58 59 60 59 59 59 58 58 58 59 59 59 59 59 60 61 61 61 60 60 59 56 53 51 49 48 47 46 44 43 42 42 42 40 39 37 36 36 36
48 49 52 53 53 52 51 50 49 47 46 45 44 43 41 41 41 41 40 41 41 41 42 43 44 45 46 48 49 51 53 54 54 55 56 56 57 57 58 58 58 59 59 59 59 60 60 60 60 60 61 61 61 61 61 60 60 61 61 62 62 62 63 63 63 63 62 61 59 56 53 50 49 48 47 46 45 44 42 41 41 40 38 37 36 33 33 35
49 50 51 52 52 52 52 51 49 48 46 45 44 42 42 41 41 40 40 41 41 41 42 43 43 44 45 47 48 50 52 54 55 56 57 57 57 58 59 60 60 61 61 62 62 62 62 62 62 62 62 63 64 65 65 65 65 65 65 66 66 66 66 66 65 64 63 60 56 53 50 48 47 47 46 45 45 43 41 39 39 38 37 36 35 33 32 35
Wind_Direction
265 265 264 263 262 261 260 259 257 256 254 252 250 248 245 243 242 241 242 242 243 243 243 243 242 242 242 242 242 242 242 242 242 243 244 244 244 244 244 244 244 244 244 244 243 244 244 244 245 245 246 246 247 248 249 250 251 252 253 254 255 256 257 257 258 259 260 261 262 263 263 264 265 266 267 268 269 270 271 272 273 273 273 273 273 273 272 272
264 264 263 262 261 260 259 258 257 256 255 253 252 250 248 245 243 241 241 241 241 242 242 242 242 242 242 242 241 241 241 241 242 242 243 243 244 245 245 245 245 244 244 245 244 244 245 245 245 246 246 247 247 248 249 250 250 251 252 254 255 256 256 257 258 259 260 261 262 262 263 264 265 265 266 267 267 268 270 272 273 273 272 272 272 272 272 271
264 263 262 261 260 259 258 257 256 255 254 253 252 251 249 247 245 243 241 240 240 240 241 241 241 241 241 241 241 241 240 240 240 241 242 243 243 244 245 245 245 245 245 245 245 245 245 245 246 246 246 247 248 248 249 249 250 251 252 253 254 256 257 257 258 259 260 261 261 262 262 263 264 264 265 266 267 268 269 270 272 272 272 272 272 272 272 271
264 262 262 261 260 259 258 256 256 255 254 253 252 251 250 248 246 245 243 242 240 240 240 240 240 241 241 240 240 240 240 239 239 240 241 241 242 243 244 244 245 245 245 245 245 246 245 245 246 246 246 247 248 248 249 249 250 250 251 252 254 256 257 258 258 259 260 261 261 262 262 263 263 264 265 265 266 267 268 269 270 271 272 272 273 273 272 271
264 263 262 261 260 259 257 256 255 254 254 253 252 251 250 249 247 246 245 244 242 241 240 239 239 240 240 240 240 240 239 239 239 239 240 240 240 242 243 243 244 245 245 246 246 246 246 246 246 246 247 247 248 248 248 249 249 250 251 253 254 256 257 258 258 259 260 261 262 262 262 262 263 264 264 265 266 267 268 269 269 270 271 271 272 272 272 272
266 264 262 260 260 259 258 256 255 254 253 252 252 252 251 249 248 247 246 245 245 243 242 240 239 238 238 239 239 239 239 238 238 239 239 239 239 240 241 242 243 244 244 245 246 246 246 246 246 246 247 247 247 248 248 248 250 251 252 253 254 255 256 257 259 260 260 261 262 262 262 262 263 263 264 265 266 267 268 269 270 270 270 270 271 271 272 272
269 267 264 262 259 258 258 257 255 254 253 252 252 251 251 250 249 247 246 245 245 245 244 242 239 238 237 238 238 239 239 238 238 238 238 238 238 239 240 241 242 243 243 244 244 245 246 246 246 246 247 247 247 248 248 249 250 252 253 254 254 255 256 258 259 260 260 261 261 262 262 262 263 263 265 266 267 268 269 270 271 270 270 270 271 272 272 272
272 270 268 265 262 259 257 256 255 254 253 252 251 251 251 250 249 248 246 245 244 245 245 244 242 239 237 237 237 237 238 238 238 238 238 238 237 238 239 239 240 241 242 242 243 244 245 246 246 247 247 247 247 248 249 250 252 253 253 254 255 256 257 258 259 260 260 261 261 261 261 262 263 264 266 267 268 269 270 270 271 270 270 271 272 272 272 272
271 270 269 267 265 262 258 256 255 254 253 251 250 250 250 249 249 248 246 245 244 243 244 244 243 241 239 237 237 236 237 237 237 238 238 237 237 237 238 238 239 240 241 241 242 243 244 244 245 245 245 246 247 248 250 251 252 253 254 254 255 256 257 258 258 259 260 260 260 261 261 262 264 265 267 268 269 270 270 270 271 271 271 271 272 272 272 272
271 270 268 266 264 263 260 257 254 253 252 251 249 249 248 248 248 247 246 245 244 243 243 243 244 243 241 239 237 236 236 237 236 237 237 237 237 237 237 238 238 239 240 240 241 242 242 242 243 243 244 245 247 248 249 250 252 253 254 254 255 256 257 257 258 259 259 260 261 261 263 264 265 266 267 268 270 270 271 272 272 271 271 271 272 272 272 272
272 270 268 266 264 262 261 258 254 252 250 249 248 248 247 247 246 246 245 244 243 242 242 242 243 243 242 241 240 238 237 236 235 236 237 237 237 237 237 237 238 238 239 239 240 241 241 242 242 243 244 245 246 248 249 250 251 252 253 254 254 255 256 257 258 258 259 260 261 263 264 265 265 266 267 269 270 271 272 272 272 272 272 272 272 271 271 271
272 270 269 267 264 262 261 259 255 252 249 248 247 246 245 245 244 244 243 243 242 242 241 240 241 242 242 242 242 240 237 235 235 235 236 236 236 236 236 237 237 237 237 238 239 239 240 241 242 243 244 245 246 247 248 249 250 251 252 253 254 255 256 257 257 257 259 261 262 264 265 265 266 267 268 269 270 271 271 271 271 272 272 272 271 271 271 271
271 270 269 267 265 263 261 259 256 252 249 247 246 245 244 243 243 242 241 241 241 240 240 239 239 240 241 241 241 240 238 236 235 235 235 234 235 235 235 236 236 236 236 237 238 238 240 241 242 243 244 245 245 246 246 247 248 250 251 253 254 255 255 255 256 258 260 261 263 265 266 267 268 268 269 269 270 271 271 271 271 271 272 272 271 270 270 271
270 269 268 267 266 263 261 260 257 253 250 247 245 245 244 243 242 241 241 240 240 239 239 238 238 238 239 240 240 240 239 238 236 235 233 232 233 234 234 235 235 235 235 236 237 238 239 240 241 242 243 244 244 244 244 245 247 249 251 252 254 254 254 255 257 259 260 262 264 266 267 268 269 269 269 269 269 270 270 270 270 270 270 271 270 270 271 271
269 268 267 266 265 264 262 260 257 254 251 248 246 244 244 243 242 241 240 240 239 239 238 238 237 238 238 239 239 239 238 238 237 235 233 232 232 233 234 234 234 235 235 235 236 237 238 238 239 240 241 242 242 243 243 244 247 249 251 252 253 253 255 257 259 260 261 264 266 267 268 269 270 270 270 269 269 268 267 267 268 268 269 269 269 270 271 271
268 267 266 265 264 263 261 259 258 255 252 249 247 245 244 243 242 241 240 240 239 239 238 238 238 237 237 238 238 238 237 237 236 235 233 232 231 232 233 234 234 235 235 235 236 236 237 237 238 239 240 241 241 242 243 245 247 250 251 252 252 254 256 258 260 261 264 266 268 269 270 270 269 269 268 267 266 266 265 266 267 268 269 269 270 270 270 271
267 266 265 264 263 262 260 259 257 256 253 250 247 245 244 243 242 241 240 239 239 239 239 238 238 237 236 237 236 235 235 236 236 235 234 232 231 231 232 233 234 235 235 235 235 236 236 236 237 238 239 240 241 242 244 246 248 250 250 251 253 255 257 259 261 264 266 268 269 269 268 267 266 265 265 264 264 264 266 267 268 269 269 270 271 271 271 272
266 265 264 263 262 260 259 257 256 255 253 251 248 246 245 243 242 240 240 239 239 239 238 238 237 235 234 234 233 232 233 235 236 235 234 233 231 230 232 232 233 234 234 235 235 235 235 236 236 237 238 239 241 243 245 246 247 247 249 251 254 257 259 261 263 265 267 267 266 265 263 262 262 262 263 263 264 265 266 267 268 269 270 271 272 272 273 273
265 264 263 262 261 260 258 256 254 253 252 251 249 247 245 243 242 240 239 239 238 237 236 234 233 231 231 232 231 231 232 234 235 235 235 234 232 230 231 232 233 234 234 234 235 235 235 235 236 237 238 239 241 242 243 244 245 246 249 252 255 258 261 263 264 265 265 264 261 260 261 261 261 262 262 263 264 265 266 266 268 269 270 271 271 272 273 273
264 263 262 262 261 259 258 256 254 252 251 250 248 246 245 243 241 240 239 237 235 234 232 231 230 229 229 230 229 229 230 231 233 233 233 234 233 231 232 232 233 233 233 234 234 234 234 235 236 237 238 239 239 240 241 242 244 246 249 252 256 259 261 262 264 264 263 259 257 258 260 261 260 260 261 262 263 264 265 266 267 269 269 270 270 272 273 274
264 263 262 261 260 259 257 256 254 252 251 249 247 245 244 243 241 240 237 235 233 232 231 229 228 227 227 227 227 227 228 229 231 231 232 233 232 232 232 232 232 233 233 233 234 234 234 234 235 236 237 237 238 239 240 242 244 247 250 254 257 259 261 262 262 260 257 254 254 255 257 257 258 259 259 260 261 264 267 268 268 269 270 270 272 273 274 274
263 262 262 261 260 259 257 256 254 252 250 248 246 244 244 243 242 240 237 235 233 231 229 228 227 227 226 225 225 225 226 228 230 230 231 232 232 232 233 232 231 231 231 232 232 233 234 234 235 235 235 236 237 238 241 243 246 249 252 255 257 258 258 258 256 253 251 250 251 252 253 255 258 259 261 262 264 266 269 270 271 272 273 274 275 274 273 271
262 262 261 260 259 259 257 256 254 252 250 248 246 244 243 242 240 238 236 234 233 231 230 228 227 227 226 225 225 225 225 226 228 229 229 230 231 231 231 231 230 229 229 230 231 232 231 230 231 232 233 235 236 239 241 244 246 249 251 253 253 253 252 250 248 246 246 246 248 250 252 255 258 261 265 269 270 269 270 273 275 276 276 276 275 273 270 269
262 262 261 261 260 259 257 256 254 252 249 247 245 244 242 240 238 236 235 234 233 231 230 229 228 228 227 226 225 225 225 227 228 228 228 229 229 229 229 228 227 227 227 227 228 228 227 226 228 230 232 234 236 238 241 243 245 247 247 246 246 245 244 243 242 242 242 243 246 250 254 257 260 264 268 272 274 273 274 275 276 277 276 275 273 271 269 267
263 263 262 261 260 258 257 255 253 250 248 246 244 242 240 238 237 236 235 234 233 232 231 230 230 229 227 226 225 225 226 227 228 228 227 228 228 227 226 225 225 224 225 225 224 223 224 226 228 230 231 233 235 237 240 241 242 241 240 239 239 239 239 239 238 239 240 243 247 251 255 258 262 266 270 273 275 275 276 276 276 275 274 273 271 270 268 266
264 263 262 261 259 257 255 253 251 249 247 245 242 240 238 237 236 235 234 233 233 232 231 231 230 228 226 225 225 224 224 225 226 226 225 226 226 225 224 223 222 221 221 221 221 221 224 226 226 227 228 230 231 234 236 237 237 235 233 234 235 235 235 236 236 239 242 245 248 252 256 259 263 268 271 272 273 276 278 278 277 276 274 272 270 267 265 263
265 264 262 260 258 256 254 252 250 248 246 243 241 239 237 236 235 233 233 232 231 230 230 229 229 227 224 223 223 222 222 223 223 223 223 224 225 225 224 221 220 219 217 217 219 220 222 223 223 224 226 227 228 230 231 231 230 229 228 231 233 233 234 235 237 240 243 246 250 253 257 261 264 268 270 271 274 277 279 279 277 275 272 270 268 265 263 261
266 264 261 259 257 254 252 249 247 245 243 240 239 237 236 234 233 232 232 231 230 229 229 228 227 225 223 223 222 221 220 220 220 220 220 221 221 221 221 218 217 218 214 213 216 217 218 219 219 220 220 221 223 225 225 224 223 224 226 229 231 232 233 235 237 241 244 248 252 255 259 263 265 267 270 273 276 276 276 276 275 273 270 268 265 263 262 260
265 262 259 256 253 249 247 244 242 239 237 235 234 233 232 232 231 230 230 230 229 228 227 226 225 223 222 222 221 220 220 219 218 217 216 217 217 216 214 211 213 216 213 212 215 215 215 216 216 217 217 217 218 220 221 220 220 222 224 227 229 232 234 236 238 242 246 250 253 257 261 263 265 268 272 275 274 273 273 272 270 269 269 268 266 266 265 263
262 258 254 251 247 243 240 237 233 231 229 228 228 228 228 228 228 227 226 226 225 224 224 223 221 219 218 219 219 218 218 217 218 217 215 214 212 212 210 210 213 215 214 216 216 214 214 215 215 215 216 217 218 219 220 220 221 223 224 226 230 233 236 237 240 244 248 252 256 258 260 262 266 271 274 274 271 270 269 268 267 267 268 268 268 268 266 264
257 253 248 244 240 235 231 228 225 224 223 222 222 222 221 221 221 220 219 219 218 217 216 215 213 212 210 211 212 212 212 213 214 213 213 212 211 211 210 211 214 215 216 217 214 213 215 214 213 213 213 215 217 218 219 221 223 225 226 227 231 234 237 239 241 246 250 255 257 257 258 262 267 271 273 272 269 268 267 268 268 268 268 269 269 269 268 267
251 246 240 235 231 226 223 221 219 218 217 215 214 213 213 212 211 210 209 206 205 205 204 202 199 198 200 202 203 203 203 206 207 207 207 208 209 210 209 210 212 214 216 215 212 212 213 212 211 211 211 214 216 218 220 223 225 226 227 228 232 236 238 241 243 248 252 255 255 256 259 264 267 270 272 271 269 268 269 270 270 269 268 268 269 269 269 269
244 238 231 226 222 219 216 214 212 210 208 206 204 203 202 199 198 197 195 193 192 191 190 188 186 187 191 195 197 198 197 198 200 202 202 203 205 206 207 208 208 209 212 212 210 211 211 211 210 211 212 213 215 218 221 223 224 224 225 228 231 236 240 242 245 248 252 253 255 258 261 264 266 270 272 271 271 272 272 271 270 269 268 268 270 270 270 269
235 228 222 218 215 212 209 206 202 199 197 195 194 191 188 187 186 183 181 181 180 179 180 181 182 183 186 188 191 193 194 195 197 197 197 199 202 203 203 202 203 207 211 210 208 208 210 210 209 210 212 214 216 219 220 222 223 224 225 228 231 236 240 244 247 250 252 254 257 260 263 264 267 271 272 272 274 275 274 272 271 270 271 271 273 274 273 271
226 219 214 210 206 202 199 195 191 189 186 184 180 177 177 177 176 174 172 172 173 174 177 178 180 181 183 185 187 188 190 194 195 194 194 196 198 198 198 198 201 208 213 211 207 208 209 209 209 210 211 214 216 218 220 221 223 225 228 230 234 237 241 245 248 252 254 257 260 262 263 265 267 270 272 273 276 277 276 275 275 275 275 275 276 276 275 274
216 210 205 200 195 191 187 184 181 178 175 171 169 169 171 171 168 167 167 169 173 174 175 176 177 180 183 184 186 187 189 192 193 193 193 194 196 196 195 197 201 207 211 209 207 208 209 209 210 211 212 215 218 219 221 223 225 227 230 232 235 238 242 246 249 253 256 259 262 263 263 265 267 270 271 273 277 278 277 277 277 277 276 277 278 278 278 278
205 200 194 189 184 181 178 174 171 168 165 164 165 166 166 165 163 164 166 171 174 174 173 175 177 180 183 185 187 188 189 191 192 192 192 194 196 197 197 198 201 206 209 209 207 207 208 209 210 211 214 217 219 221 223 225 228 231 233 235 238 241 244 248 251 254 257 260 261 262 262 264 267 270 272 274 276 276 275 274 274 273 274 277 281 284 285 284
194 189 184 180 176 173 170 165 163 161 161 162 165 165 163 162 162 165 170 174 175 174 174 175 177 180 183 185 188 188 189 191 193 192 192 194 196 198 199 200 202 207 210 210 209 208 209 209 209 212 216 219 221 223 224 227 230 233 236 238 240 243 246 248 251 254 256 258 260 260 261 264 268 270 272 273 274 273 271 271 270 271 274 280 285 288 288 287
183 178 174 173 171 168 164 161 159 159 161 163 164 163 162 164 165 169 175 177 176 175 175 175 177 180 183 186 187 189 190 192 193 194 194 196 198 200 201 202 204 208 211 212 213 213 213 213 212 214 218 220 223 225 226 229 232 235 237 240 242 244 246 248 251 253 256 257 258 259 261 264 266 268 270 271 271 270 270 269 270 273 278 283 286 288 288 287
172 169 167 166 165 162 160 158 158 160 163 164 164 164 165 167 169 173 178 177 176 176 176 176 177 180 183 186 188 190 192 194 194 194 195 198 200 202 203 204 206 209 211 213 215 216 217 217 216 218 220 222 224 227 229 230 233 236 239 241 243 245 247 249 251 253 255 256 257 258 260 262 264 266 269 270 269 269 269 270 273 277 281 284 286 287 288 287
166 164 161 160 159 158 157 158 160 163 165 165 165 167 169 170 172 176 178 176 175 175 177 178 179 180 182 185 189 192 194 195 195 195 197 199 201 203 204 206 209 210 212 214 216 217 218 218 219 220 223 224 226 228 230 232 234 237 240 242 244 246 248 249 252 253 254 255 255 257 259 260 263 267 268 268 268 269 271 272 275 279 282 285 287 287 286 286
162 159 157 157 157 157 158 160 163 165 166 167 169 171 172 173 175 177 177 175 175 176 178 179 180 181 183 186 189 192 194 196 197 198 200 202 203 205 206 208 210 212 213 216 217 218 218 218 219 220 223 225 226 228 231 233 235 238 241 243 244 246 248 250 252 253 253 254 255 256 257 260 263 265 266 267 269 270 272 274 277 280 283 286 287 287 287 285
160 158 157 157 158 159 161 164 166 167 168 170 172 174 176 176 176 177 177 176 176 177 178 180 181 183 185 188 190 192 194 196 198 199 202 204 206 207 210 212 213 214 216 218 219 220 220 220 220 221 223 225 227 229 231 233 235 238 241 243 245 246 248 249 250 251 252 253 254 255 257 261 264 265 267 269 270 272 273 275 279 281 284 286 286 288 288 282
160 159 159 160 161 163 165 167 169 170 171 173 175 177 179 178 176 177 177 177 178 178 179 181 182 185 187 190 191 192 194 196 197 199 200 203 205 208 211 214 215 216 218 220 221 223 223 223 223 223 224 226 228 230 232 234 236 238 241 243 245 246 247 248 248 249 250 252 254 257 261 264 266 267 269 270 271 272 274 276 279 282 283 285 286 287 287 278
162 161 162 163 165 166 167 168 171 173 174 175 177 179 180 179 178 178 179 179 180 181 181 182 184 187 190 192 193 195 196 198 199 200 200 201 202 205 208 212 214 216 218 221 222 224 224 224 223 223 224 226 230 232 234 236 237 238 240 242 244 245 246 247 248 249 251 253 256 260 264 266 267 267 269 270 271 273 274 277 279 281 282 283 285 285 283 274
164 164 164 166 167 168 168 170 172 175 176 177 178 180 180 179 180 181 182 182 183 184 185 185 186 189 192 194 196 198 200 202 203 204 204 204 203 204 206 209 212 214 216 218 220 222 224 224 223 224 226 229 232 234 235 237 238 239 240 241 242 244 245 247 248 250 252 255 259 263 265 266 267 268 269 270 271 272 275 277 278 278 279 281 282 281 279 272
163 163 165 167 167 168 169 171 173 175 177 178 179 180 180 180 181 184 185 186 188 189 188 188 189 191 194 196 198 201 203 205 207 208 210 210 209 209 210 211 213 214 216 218 220 222 224 225 226 229 231 233 235 237 239 239 240 240 241 242 242 243 244 246 247 250 253 257 260 263 265 266 268 269 269 269 271 272 274 275 275 275 277 278 279 278 276 269
163 162 164 166 167 168 170 172 174 176 178 180 181 181 182 182 184 187 188 188 190 192 192 191 192 194 196 198 200 202 205 207 209 211 213 214 215 215 216 217 218 219 221 223 224 226 229 230 231 233 235 236 238 240 241 241 241 241 242 243 244 244 245 246 248 251 255 259 262 264 265 267 268 267 267 268 269 271 271 271 272 274 275 277 278 276 271 264
163 163 164 166 168 170 173 175 176 178 181 183 184 184 184 186 189 191 191 190 191 193 195 196 197 198 199 201 203 204 206 208 211 213 215 216 218 219 220 221 223 224 226 227 229 231 233 234 235 236 238 239 240 240 241 242 242 242 242 243 244 245 247 249 251 254 258 260 263 265 266 266 266 265 265 266 267 268 268 269 270 272 274 278 279 274 265 258
164 164 165 168 170 173 175 177 179 181 184 186 186 186 186 189 193 194 195 194 195 197 199 201 202 202 203 205 206 208 209 211 212 214 216 218 219 220 222 223 225 226 228 230 231 233 235 236 237 238 239 239 239 239 239 240 241 242 243 243 244 246 249 252 254 257 259 262 263 265 266 265 265 264 265 265 265 264 265 267 268 271 275 278 278 273 263 256
166 167 169 171 173 174 176 179 181 183 186 188 188 188 189 192 196 198 198 199 200 202 204 206 207 207 208 209 210 211 212 214 215 216 218 219 221 222 223 225 226 228 229 230 232 233 235 236 237 238 239 240 240 239 239 239 240 242 244 246 247 249 251 254 256 258 260 262 263 264 264 264 264 264 264 263 263 262 263 264 267 271 275 278 277 273 265 258
169 171 172 174 175 176 179 182 183 185 188 190 190 190 192 195 198 200 201 203 204 205 208 210 212 213 214 214 215 216 217 217 218 220 221 223 224 226 227 228 229 230 231 232 233 235 236 237 237 238 240 241 241 241 241 241 242 244 246 248 250 251 253 255 257 259 260 261 262 262 262 262 262 262 262 262 261 260 261 263 266 270 275 278 278 273 267 262
Height
10607 10607 10608 10608 10609 10610 10611 10613 10614 10616 10617 10619 10621 10624 10626 10629 10631 10634 10637 10640 10643 10646 10648 10651 10654 10658 10662 10667 10672 10675 10680 10685 10689 10694 10692 10691 10701 10708 10708 10710 10715 10721 10722 10725 10728 10731 10735 10739 10744 10746 10748 10749 10750 10753 10756 10759 10763 10761 10758 10758 10761 10767 10773 10777 10779 10781 10782 10784 10786 10789 10790 10789 10788 10789 10789 10788 10787 10787 10785 10786 10790 10791 10789 10789 10790 10791 10792 10792
10598 10599 10599 10600 10600 10601 10602 10604 10605 10607 10609 10611 10613 10615 10618 10621 10624 10627 10630 10632 10635 10638 10640 10642 10645 10649 10653 10658 10662 10666 10671 10677 10683 10685 10679 10686 10699 10699 10699 10703 10708 10712 10714 10717 10721 10725 10729 10734 10738 10740 10742 10743 10744 10748 10751 10754 10756 10753 10752 10754 10756 10762 10767 10771 10773 10775 10777 10779 10781 10784 10785 10784 10783 10783 10783 10782 10783 10783 10782 10782 10784 10784 10785 10785 10785 10786 10787 10788
10590 10590 10590 10590 10591 10592 10593 10594 10596 10598 10600 10602 10604 10607 10610 10613 10616 10619 10622 10625 10628 10630 10632 10634 10637 10640 10644 10649 10652 10657 10662 10668 10676 10674 10670 10684 10692 10688 10691 10696 10699 10704 10707 10710 10714 10718 10724 10728 10732 10733 10734 10736 10738 10742 10745 10748 10748 10746 10747 10749 10752 10757 10762 10766 10768 10769 10771 10774 10776 10778 10779 10778 10776 10777 10778 10777 10778 10778 10778 10779 10778 10778 10779 10780 10780 10781 10782 10781
10581 10581 10581 10581 10582 10583 10584 10585 10587 10588 10590 10593 10595 10598 10601 10604 10608 10611 10614 10617 10620 10622 10624 10626 10629 10632 10636 10640 10643 10648 10652 10660 10666 10661 10663 10679 10682 10678 10683 10688 10692 10696 10700 10704 10707 10712 10717 10721 10723 10725 10728 10730 10733 10737 10739 10741 10740 10739 10741 10744 10749 10754 10757 10760 10761 10763 10766 10768 10770 10771 10771 10771 10770 10771 10772 10772 10772 10773 10773 10773 10773 10773 10775 10775 10776 10775 10774 10773
10572 10572 10572 10572 10572 10573 10574 10575 10577 10578 10581 10583 10586 10589 10592 10596 10599 10603 10606 10609 10612 10614 10616 10618 10621 10624 10628 10631 10634 10639 10644 10651 10655 10651 10658 10670 10672 10671 10676 10681 10685 10689 10693 10697 10701 10706 10710 10713 10715 10719 10721 10724 10728 10730 10731 10732 10733 10734 10737 10742 10747 10750 10751 10753 10755 10758 10760 10761 10763 10763 10764 10764 10766 10766 10765 10766 10767 10768 10767 10767 10768 10770 10771 10771 10771 10769 10767 10766
10563 10562 10563 10563 10563 10564 10564 10565 10567 10569 10571 10573 10576 10579 10583 10587 10590 10594 10598 10600 10603 10605 10607 10610 10612 10617 10620 10623 10627 10631 10636 10642 10643 10643 10650 10659 10663 10664 10668 10674 10677 10681 10687 10690 10694 10699 10702 10705 10709 10712 10714 10718 10722 10722 10723 10726 10727 10729 10734 10740 10743 10744 10745 10747 10750 10752 10754 10755 10755 10756 10756 10758 10760 10760 10759 10760 10761 10762 10761 10761 10764 10766 10766 10765 10765 10763 10761 10760
10553 10553 10553 10553 10553 10554 10555 10555 10557 10559 10561 10564 10567 10570 10574 10577 10581 10585 10588 10592 10595 10596 10598 10600 10604 10608 10612 10615 10619 10623 10629 10632 10632 10635 10641 10649 10654 10656 10660 10666 10670 10674 10679 10682 10687 10691 10695 10699 10702 10705 10708 10712 10714 10713 10717 10721 10723 10725 10732 10736 10737 10738 10740 10741 10744 10746 10747 10748 10748 10749 10750 10752 10754 10754 10754 10754 10754 10756 10756 10757 10759 10759 10759 10759 10758 10757 10755 10753
10543 10543 10542 10542 10543 10544 10545 10545 10547 10549 10551 10554 10557 10561 10564 10567 10571 10575 10579 10583 10586 10588 10589 10591 10596 10600 10604 10608 10611 10617 10621 10619 10623 10629 10634 10640 10645 10648 10652 10658 10662 10666 10670 10674 10679 10684 10689 10693 10695 10699 10702 10704 10704 10707 10713 10718 10720 10721 10727 10730 10731 10733 10734 10736 10738 10739 10740 10740 10740 10741 10743 10747 10748 10749 10748 10747 10749 10751 10751 10752 10752 10752 10753 10754 10752 10751 10748 10746
10534 10533 10533 10532 10532 10533 10534 10535 10536 10538 10541 10544 10548 10551 10554 10557 10561 10565 10570 10574 10577 10579 10580 10583 10588 10591 10596 10600 10603 10610 10610 10608 10618 10624 10625 10631 10637 10640 10644 10649 10654 10658 10662 10667 10673 10679 10683 10685 10687 10690 10694 10696 10699 10704 10711 10715 10714 10715 10720 10724 10726 10727 10728 10730 10731 10732 10733 10733 10732 10734 10738 10741 10743 10744 10742 10742 10744 10745 10744 10746 10746 10746 10747 10747 10747 10744 10740 10740
10524 10524 10523 10523 10522 10523 10523 10524 10526 10528 10531 10534 10537 10541 10544 10547 10551 10556 10560 10564 10567 10569 10571 10575 10579 10583 10588 10592 10597 10601 10599 10602 10613 10615 10617 10625 10628 10632 10635 10640 10645 10649 10654 10660 10666 10671 10673 10675 10678 10682 10687 10692 10696 10701 10707 10709 10707 10708 10714 10718 10720 10720 10721 10723 10725 10725 10725 10725 10725 10728 10733 10736 10738 10739 10737 10738 10739 10738 10738 10739 10739 10739 10739 10741 10741 10737 10733 10733
10514 10514 10513 10513 10512 10512 10513 10514 10515 10517 10520 10523 10527 10530 10533 10537 10541 10546 10551 10554 10557 10559 10562 10566 10571 10576 10580 10584 10590 10590 10589 10597 10605 10606 10612 10617 10620 10624 10627 10632 10637 10641 10647 10652 10658 10661 10662 10666 10672 10677 10683 10687 10691 10697 10702 10701 10700 10703 10708 10711 10713 10714 10715 10718 10718 10717 10718 10719 10719 10723 10728 10730 10732 10732 10732 10734 10734 10732 10733 10732 10731 10731 10732 10734 10734 10731 10727 10727
10504 10503 10503 10502 10502 10503 10503 10503 10505 10507 10510 10514 10517 10519 10523 10527 10532 10537 10541 10544 10547 10550 10554 10558 10564 10568 10571 10578 10579 10577 10583 10592 10597 10601 10605 10608 10611 10615 10619 10624 10628 10633 10638 10644 10647 10650 10654 10660 10667 10673 10678 10683 10687 10692 10696 10694 10693 10696 10701 10704 10706 10708 10710 10710 10709 10709 10713 10714 10714 10719 10721 10722 10726 10726 10727 10730 10728 10726 10726 10726 10725 10725 10726 10728 10728 10725 10721 10721
10493 10493 10493 10492 10493 10493 10493 10494 10495 10497 10500 10503 10506 10508 10513 10517 10522 10527 10531 10535 10537 10541 10545 10550 10556 10559 10565 10569 10566 10568 10579 10585 10590 10593 10594 10597 10601 10605 10610 10614 10618 10624 10629 10633 10637 10641 10648 10656 10663 10668 10673 10678 10682 10686 10688 10687 10686 10689 10694 10698 10700 10703 10702 10700 10701 10705 10709 10709 10711 10714 10713 10716 10720 10720 10722 10725 10723 10720 10719 10719 10719 10719 10720 10721 10720 10718 10715 10716
10483 10483 10482 10483 10483 10483 10484 10484 10485 10487 10490 10492 10495 10498 10502 10507 10513 10518 10521 10525 10528 10533 10537 10543 10547 10551 10557 10556 10555 10565 10574 10576 10579 10580 10581 10587 10593 10597 10602 10606 10611 10616 10620 10623 10628 10635 10643 10652 10658 10663 10667 10671 10674 10678 10680 10679 10680 10683 10689 10693 10694 10693 10691 10692 10698 10702 10703 10704 10707 10708 10707 10710 10712 10712 10716 10718 10717 10715 10714 10714 10713 10714 10715 10714 10713 10711 10710 10710
10473 10473 10473 10473 10473 10473 10474 10475 10475 10478 10480 10482 10484 10488 10493 10498 10503 10508 10512 10516 10520 10525 10529 10534 10538 10543 10547 10544 10548 10561 10565 10565 10565 10566 10573 10581 10586 10591 10594 10598 10603 10607 10611 10616 10622 10630 10638 10646 10652 10655 10660 10663 10666 10670 10671 10674 10676 10678 10684 10686 10683 10682 10685 10690 10694 10695 10697 10701 10702 10700 10701 10704 10704 10705 10709 10711 10710 10708 10708 10708 10708 10709 10710 10709 10706 10705 10704 10705
10462 10462 10462 10463 10463 10464 10464 10465 10466 10468 10470 10472 10474 10478 10484 10489 10493 10498 10504 10507 10512 10516 10521 10526 10529 10534 10537 10535 10544 10555 10554 10551 10553 10561 10570 10574 10579 10584 10587 10593 10597 10601 10605 10610 10617 10625 10631 10639 10643 10648 10652 10655 10658 10661 10665 10670 10672 10675 10678 10674 10670 10675 10683 10686 10688 10690 10694 10697 10695 10693 10695 10698 10697 10699 10702 10703 10702 10700 10701 10702 10702 10703 10704 10703 10701 10699 10699 10699
10452 10452 10452 10452 10453 10454 10454 10455 10457 10459 10460 10462 10465 10469 10474 10479 10484 10490 10495 10499 10503 10508 10512 10517 10520 10525 10527 10528 10538 10544 10540 10541 10548 10557 10563 10566 10573 10579 10583 10588 10591 10594 10599 10605 10613 10618 10624 10630 10635 10640 10644 10646 10650 10655 10662 10667 10669 10669 10667 10660 10662 10673 10680 10681 10683 10686 10690 10691 10687 10685 10688 10690 10690 10692 10694 10694 10694 10693 10695 10696 10697 10697 10698 10697 10695 10693 10693 10694
10441 10441 10441 10442 10443 10443 10445 10446 10447 10449 10451 10452 10456 10461 10465 10469 10475 10481 10485 10490 10495 10500 10504 10508 10512 10517 10518 10520 10528 10531 10531 10536 10544 10551 10556 10561 10568 10573 10578 10581 10583 10588 10594 10601 10607 10611 10617 10623 10628 10632 10636 10639 10646 10654 10660 10661 10659 10657 10654 10653 10661 10670 10675 10676 10679 10681 10684 10683 10680 10678 10680 10682 10683 10685 10686 10686 10687 10689 10690 10691 10691 10692 10692 10691 10689 10687 10687 10688
10429 10430 10430 10431 10432 10433 10434 10436 10438 10440 10441 10443 10448 10452 10456 10460 10466 10472 10476 10482 10488 10491 10494 10498 10503 10506 10507 10511 10520 10524 10527 10532 10538 10545 10551 10555 10561 10567 10571 10574 10579 10584 10590 10596 10600 10605 10611 10616 10621 10626 10630 10636 10643 10650 10651 10649 10647 10646 10649 10654 10660 10666 10670 10670 10671 10674 10677 10677 10673 10671 10672 10675 10677 10677 10678 10680 10682 10685 10686 10686 10686 10686 10686 10685 10682 10681 10682 10684
10417 10418 10419 10419 10420 10421 10423 10425 10427 10429 10431 10435 10439 10442 10446 10451 10458 10464 10469 10475 10479 10480 10484 10490 10494 10497 10500 10506 10514 10518 10521 10525 10529 10537 10543 10547 10553 10560 10565 10570 10575 10580 10586 10590 10594 10599 10604 10609 10615 10621 10626 10631 10635 10639 10638 10637 10639 10642 10647 10653 10658 10662 10663 10662 10663 10669 10671 10669 10667 10665 10666 10669 10669 10669 10672 10676 10678 10679 10680 10680 10680 10680 10679 10678 10677 10677 10678 10679
10405 10406 10407 10408 10409 10410 10412 10414 10417 10419 10421 10425 10429 10432 10436 10443 10451 10457 10462 10466 10469 10472 10477 10481 10485 10489 10494 10500 10507 10511 10515 10519 10522 10529 10536 10540 10547 10555 10560 10565 10571 10576 10580 10583 10587 10593 10598 10605 10611 10615 10618 10621 10625 10627 10627 10629 10634 10640 10646 10652 10655 10656 10655 10656 10659 10662 10663 10661 10661 10662 10662 10661 10660 10662 10667 10671 10674 10674 10673 10673 10673 10673 10672 10672 10673 10674 10674 10674
10393 10394 10395 10396 10397 10399 10401 10403 10406 10408 10411 10415 10419 10423 10430 10439 10446 10450 10454 10457 10461 10465 10468 10473 10478 10481 10486 10492 10499 10504 10510 10512 10514 10523 10531 10536 10543 10550 10555 10560 10566 10569 10571 10575 10581 10588 10595 10603 10605 10605 10607 10611 10616 10619 10621 10625 10631 10638 10645 10649 10649 10649 10649 10650 10653 10655 10655 10655 10657 10657 10656 10655 10653 10655 10661 10666 10670 10670 10667 10665 10665 10666 10666 10667 10669 10669 10668 10666
10382 10382 10383 10384 10385 10387 10389 10392 10395 10397 10400 10404 10410 10417 10425 10432 10436 10440 10444 10447 10452 10456 10461 10466 10468 10471 10479 10488 10494 10499 10503 10504 10507 10517 10526 10531 10537 10543 10548 10554 10557 10559 10564 10571 10577 10585 10592 10594 10590 10591 10598 10605 10611 10614 10616 10622 10629 10636 10642 10643 10642 10642 10643 10644 10646 10648 10649 10651 10651 10651 10651 10650 10648 10651 10657 10660 10662 10663 10661 10659 10660 10660 10660 10661 10662 10662 10661 10659
10370 10370 10371 10372 10374 10376 10379 10381 10384 10386 10390 10396 10403 10411 10417 10421 10425 10429 10433 10437 10442 10448 10452 10455 10459 10466 10476 10483 10490 10494 10496 10498 10504 10514 10521 10525 10529 10535 10541 10545 10548 10553 10560 10567 10573 10580 10581 10578 10578 10586 10595 10601 10606 10608 10612 10619 10626 10632 10636 10635 10634 10635 10636 10637 10640 10643 10645 10646 10646 10647 10647 10645 10646 10650 10655 10655 10650 10651 10655 10655 10655 10654 10654 10654 10655 10655 10654 10653
10359 10359 10359 10361 10363 10365 10368 10370 10372 10375 10381 10388 10395 10401 10405 10409 10413 10417 10422 10428 10434 10439 10443 10448 10455 10461 10469 10480 10486 10487 10489 10494 10500 10509 10515 10519 10523 10529 10533 10537 10542 10550 10556 10562 10568 10570 10568 10571 10578 10587 10592 10597 10601 10604 10609 10616 10621 10626 10629 10628 10627 10628 10629 10631 10635 10638 10640 10642 10643 10643 10642 10642 10645 10649 10651 10649 10642 10642 10648 10650 10649 10649 10648 10648 10649 10649 10648 10648
10348 10348 10348 10349 10351 10354 10357 10358 10360 10365 10372 10379 10384 10388 10393 10398 10401 10406 10413 10419 10424 10431 10436 10441 10445 10452 10465 10474 10474 10476 10483 10489 10494 10502 10508 10512 10516 10521 10526 10532 10539 10545 10550 10555 10560 10561 10564 10571 10577 10582 10587 10592 10597 10600 10605 10611 10616 10621 10623 10621 10619 10621 10623 10626 10630 10634 10637 10638 10639 10639 10638 10639 10644 10646 10645 10643 10637 10637 10641 10643 10644 10644 10643 10643 10643 10643 10644 10643
10336 10337 10336 10337 10340 10343 10345 10347 10350 10356 10362 10367 10371 10376 10381 10384 10389 10396 10404 10409 10415 10422 10426 10431 10436 10446 10458 10461 10460 10468 10476 10479 10487 10496 10502 10506 10512 10518 10523 10528 10534 10539 10544 10551 10555 10557 10563 10568 10573 10578 10584 10589 10593 10596 10600 10606 10611 10614 10615 10614 10612 10614 10618 10622 10627 10631 10633 10634 10634 10634 10634 10636 10641 10642 10639 10638 10635 10635 10636 10637 10638 10638 10638 10637 10637 10638 10638 10639
10325 10325 10325 10326 10329 10331 10333 10336 10340 10345 10350 10354 10359 10363 10367 10372 10379 10387 10394 10399 10406 10412 10417 10422 10429 10439 10447 10449 10453 10461 10464 10470 10481 10489 10494 10500 10507 10514 10520 10525 10528 10533 10540 10547 10548 10552 10558 10562 10567 10573 10579 10584 10588 10590 10594 10600 10605 10607 10608 10607 10606 10608 10614 10620 10625 10627 10628 10628 10628 10629 10630 10633 10636 10636 10636 10635 10633 10632 10632 10632 10632 10632 10632 10632 10632 10633 10634 10635
10314 10314 10314 10316 10318 10320 10323 10327 10331 10334 10338 10342 10346 10351 10356 10364 10371 10378 10385 10390 10397 10403 10408 10414 10422 10432 10438 10442 10447 10451 10458 10467 10474 10479 10487 10495 10502 10509 10514 10518 10522 10529 10537 10539 10540 10546 10552 10556 10562 10569 10574 10578 10581 10584 10589 10595 10598 10599 10601 10601 10601 10605 10611 10617 10621 10623 10623 10623 10623 10625 10626 10628 10630 10632 10633 10632 10629 10628 10628 10629 10628 10628 10628 10627 10628 10629 10630 10631
10304 10304 10306 10307 10309 10312 10315 10318 10321 10324 10327 10332 10337 10343 10350 10357 10364 10370 10376 10382 10388 10393 10399 10407 10415 10422 10429 10434 10439 10447 10457 10463 10468 10476 10484 10490 10496 10501 10506 10511 10518 10527 10532 10533 10538 10545 10548 10553 10561 10567 10571 10573 10576 10581 10586 10589 10592 10593 10595 10597 10599 10603 10608 10613 10617 10618 10618 10617 10618 10621 10621 10622 10627 10629 10629 10627 10625 10624 10624 10624 10625 10625 10624 10624 10624 10625 10626 10626
10296 10297 10298 10300 10303 10306 10308 10310 10313 10316 10321 10326 10332 10339 10345 10351 10357 10364 10369 10375 10382 10387 10394 10401 10408 10416 10422 10426 10432 10443 10451 10457 10465 10475 10481 10486 10492 10497 10503 10511 10519 10526 10528 10531 10537 10542 10546 10553 10560 10563 10565 10569 10573 10578 10582 10585 10587 10589 10592 10595 10597 10601 10604 10609 10612 10613 10613 10612 10613 10615 10616 10619 10624 10625 10624 10622 10620 10619 10619 10620 10621 10621 10621 10619 10619 10620 10620 10621
10290 10291 10292 10295 10297 10299 10301 10305 10308 10312 10318 10323 10329 10335 10340 10347 10354 10360 10365 10371 10377 10383 10389 10397 10405 10411 10415 10419 10427 10437 10445 10454 10463 10471 10477 10484 10490 10496 10503 10511 10518 10523 10525 10529 10534 10538 10544 10550 10554 10557 10561 10565 10570 10575 10578 10581 10583 10586 10590 10592 10595 10597 10600 10604 10607 10608 10608 10606 10607 10610 10613 10617 10619 10620 10619 10617 10615 10615 10615 10616 10616 10616 10616 10615 10614 10615 10615 10615
10284 10285 10288 10290 10291 10294 10297 10301 10305 10310 10315 10321 10326 10331 10338 10344 10350 10355 10361 10367 10373 10379 10386 10392 10397 10403 10408 10417 10426 10434 10441 10449 10457 10465 10473 10479 10485 10492 10499 10507 10514 10517 10517 10521 10528 10535 10540 10545 10549 10554 10558 10562 10567 10571 10574 10576 10578 10581 10584 10588 10591 10592 10595 10599 10601 10602 10601 10600 10602 10606 10610 10613 10613 10614 10614 10612 10610 10611 10611 10611 10611 10611 10610 10610 10610 10609 10609 10609
10279 10281 10283 10285 10288 10291 10295 10299 10303 10308 10313 10318 10324 10330 10336 10340 10345 10351 10358 10365 10371 10378 10383 10387 10393 10399 10407 10416 10425 10433 10441 10447 10453 10461 10470 10475 10481 10488 10496 10504 10510 10511 10511 10517 10525 10531 10535 10540 10545 10550 10554 10558 10562 10565 10567 10568 10569 10574 10579 10583 10587 10589 10591 10593 10595 10595 10594 10594 10598 10603 10606 10607 10608 10608 10608 10606 10605 10606 10606 10606 10605 10605 10604 10604 10603 10603 10602 10602
10276 10278 10280 10283 10286 10290 10293 10297 10302 10306 10311 10317 10323 10329 10333 10337 10344 10351 10358 10364 10370 10374 10380 10387 10394 10401 10406 10413 10422 10430 10437 10443 10451 10459 10466 10472 10478 10485 10493 10500 10505 10506 10508 10516 10525 10529 10532 10537 10541 10545 10550 10554 10555 10557 10559 10561 10566 10571 10576 10580 10583 10585 10587 10587 10588 10588 10588 10591 10595 10598 10600 10601 10601 10602 10602 10600 10600 10601 10600 10600 10600 10598 10597 10596 10596 10596 10595 10595
10274 10276 10279 10282 10285 10288 10292 10296 10301 10306 10312 10317 10322 10326 10331 10338 10345 10352 10359 10365 10368 10373 10381 10389 10396 10402 10408 10415 10421 10427 10432 10440 10449 10457 10463 10468 10473 10480 10487 10493 10498 10501 10505 10513 10520 10524 10528 10533 10537 10542 10546 10547 10547 10550 10554 10559 10564 10568 10572 10576 10577 10579 10581 10582 10584 10584 10584 10587 10590 10593 10594 10594 10594 10596 10596 10595 10595 10596 10595 10594 10594 10592 10590 10588 10587 10588 10588 10588
10273 10275 10278 10281 10284 10288 10292 10296 10301 10307 10312 10316 10320 10325 10333 10341 10348 10354 10359 10362 10367 10374 10382 10390 10397 10404 10410 10417 10422 10428 10435 10442 10449 10455 10461 10467 10473 10479 10486 10491 10495 10499 10502 10507 10513 10519 10523 10527 10532 10537 10539 10539 10542 10547 10553 10558 10562 10566 10568 10570 10572 10575 10577 10579 10581 10581 10581 10582 10585 10587 10588 10588 10588 10590 10590 10590 10590 10591 10590 10589 10588 10585 10583 10581 10581 10581 10581 10581
10272 10275 10278 10281 10284 10288 10292 10297 10302 10307 10311 10316 10321 10327 10335 10342 10347 10352 10356 10360 10366 10373 10380 10388 10396 10403 10410 10416 10423 10430 10437 10444 10450 10456 10462 10468 10474 10480 10486 10491 10495 10498 10501 10505 10511 10516 10519 10522 10528 10531 10532 10535 10540 10546 10552 10556 10560 10562 10562 10564 10568 10572 10574 10575 10576 10576 10576 10577 10579 10581 10582 10583 10583 10584 10584 10584 10585 10585 10584 10583 10582 10579 10578 10577 10576 10575 10574 10573
10273 10276 10279 10282 10285 10289 10293 10297 10302 10307 10312 10317 10323 10330 10335 10340 10345 10349 10353 10358 10365 10372 10379 10387 10396 10404 10411 10418 10425 10431 10437 10443 10450 10457 10463 10469 10474 10478 10483 10489 10493 10496 10500 10506 10511 10514 10517 10520 10525 10527 10529 10535 10540 10545 10550 10554 10556 10556 10557 10560 10565 10567 10569 10570 10571 10571 10572 10572 10574 10575 10577 10578 10578 10578 10578 10579 10579 10578 10577 10576 10575 10574 10574 10573 10572 10571 10569 10567
10274 10277 10280 10284 10287 10291 10296 10300 10304 10308 10313 10319 10325 10331 10335 10340 10344 10348 10353 10360 10369 10376 10383 10390 10397 10404 10412 10420 10426 10431 10436 10441 10448 10455 10462 10467 10471 10476 10481 10486 10490 10493 10498 10503 10507 10510 10514 10518 10522 10525 10529 10534 10539 10543 10547 10550 10551 10551 10552 10556 10559 10561 10563 10564 10565 10566 10567 10568 10570 10570 10571 10572 10571 10572 10573 10573 10572 10572 10571 10570 10569 10570 10570 10569 10567 10565 10564 10561
10275 10278 10282 10286 10290 10294 10299 10303 10306 10310 10315 10321 10326 10330 10334 10340 10344 10349 10356 10365 10373 10380 10387 10393 10399 10405 10412 10419 10425 10430 10436 10443 10449 10455 10460 10463 10468 10473 10478 10483 10486 10490 10495 10498 10502 10506 10509 10513 10517 10522 10526 10531 10536 10540 10542 10543 10545 10546 10548 10550 10553 10555 10557 10558 10559 10561 10562 10563 10565 10565 10566 10566 10566 10567 10567 10566 10566 10566 10565 10565 10564 10565 10565 10564 10562 10559 10557 10555
10276 10280 10285 10289 10293 10297 10301 10304 10308 10313 10318 10323 10327 10331 10335 10340 10346 10353 10360 10368 10375 10381 10388 10394 10401 10408 10414 10419 10425 10431 10438 10444 10450 10455 10459 10462 10467 10471 10475 10479 10482 10486 10491 10494 10498 10501 10502 10506 10512 10518 10522 10527 10532 10534 10536 10538 10540 10542 10543 10544 10547 10549 10551 10553 10554 10555 10556 10557 10559 10560 10560 10561 10562 10561 10560 10559 10560 10561 10560 10559 10559 10559 10559 10558 10556 10553 10551 10549
10278 10282 10287 10291 10295 10299 10303 10307 10311 10316 10321 10324 10328 10333 10337 10343 10349 10357 10363 10370 10376 10383 10390 10397 10403 10410 10415 10420 10425 10431 10437 10443 10447 10452 10456 10461 10465 10469 10472 10476 10479 10484 10487 10490 10493 10495 10497 10502 10509 10514 10518 10522 10526 10528 10530 10533 10535 10537 10537 10539 10542 10543 10545 10547 10548 10549 10550 10551 10552 10553 10554 10556 10556 10554 10553 10554 10555 10555 10554 10554 10553 10553 10552 10551 10550 10548 10545 10543
10278 10282 10287 10292 10296 10300 10305 10311 10315 10319 10323 10327 10331 10336 10341 10347 10353 10360 10366 10373 10379 10385 10391 10398 10404 10410 10414 10419 10424 10429 10434 10439 10443 10448 10453 10457 10462 10466 10470 10473 10476 10480 10483 10485 10487 10489 10493 10500 10506 10510 10514 10518 10521 10523 10526 10528 10530 10532 10533 10534 10535 10537 10539 10540 10541 10543 10544 10544 10546 10547 10549 10551 10550 10547 10548 10549 10549 10549 10549 10548 10548 10547 10546 10544 10544 10542 10540 10538
10279 10282 10287 10292 10297 10301 10306 10313 10319 10323 10327 10331 10336 10341 10347 10353 10358 10363 10368 10374 10380 10386 10391 10397 10403 10409 10414 10418 10423 10428 10432 10435 10439 10444 10447 10452 10457 10461 10465 10468 10471 10475 10478 10480 10482 10485 10489 10496 10503 10506 10510 10513 10515 10516 10519 10521 10523 10526 10527 10528 10529 10530 10532 10534 10535 10537 10538 10538 10540 10541 10544 10545 10543 10542 10542 10543 10544 10544 10543 10542 10542 10542 10540 10539 10538 10537 10535 10534
10283 10286 10289 10293 10298 10304 10310 10315 10321 10327 10331 10336 10341 10346 10352 10357 10362 10365 10370 10375 10381 10386 10391 10397 10403 10407 10412 10417 10422 10426 10430 10433 10437 10440 10443 10447 10452 10455 10459 10462 10465 10469 10472 10475 10478 10481 10485 10492 10498 10501 10504 10506 10507 10508 10511 10513 10516 10519 10520 10522 10523 10525 10526 10528 10530 10531 10532 10533 10535 10536 10537 10537 10537 10537 10538 10538 10539 10538 10538 10538 10537 10537 10536 10534 10533 10532 10531 10530
10286 10291 10295 10299 10304 10310 10315 10320 10325 10331 10336 10340 10344 10349 10354 10359 10363 10366 10371 10376 10382 10387 10392 10398 10402 10406 10410 10415 10420 10424 10428 10432 10435 10438 10442 10445 10449 10453 10456 10459 10462 10465 10468 10471 10474 10477 10481 10486 10491 10495 10497 10500 10501 10503 10505 10508 10510 10512 10513 10515 10517 10519 10521 10523 10524 10525 10526 10528 10530 10530 10530 10530 10531 10533 10533 10533 10533 10533 10533 10533 10532 10532 10531 10530 10528 10528 10527 10526
10288 10293 10298 10304 10309 10315 10320 10324 10329 10333 10338 10341 10345 10349 10354 10358 10361 10365 10370 10376 10382 10387 10392 10397 10401 10404 10408 10412 10417 10421 10425 10429 10432 10436 10439 10443 10447 10450 10453 10456 10459 10462 10465 10468 10471 10473 10476 10480 10485 10488 10491 10494 10496 10497 10499 10502 10504 10506 10508 10509 10511 10513 10516 10517 10518 10519 10521 10522 10523 10523 10524 10525 10526 10527 10528 10527 10527 10528 10528 10527 10527 10527 10526 10525 10524 10523 10523 10522
10290 10295 10300 10306 10311 10316 10321 10325 10329 10333 10336 10340 10344 10349 10355 10359 10362 10366 10371 10376 10382 10386 10391 10395 10399 10403 10407 10410 10414 10418 10422 10425 10429 10432 10436 10439 10442 10446 10450 10453 10456 10459 10461 10464 10467 10469 10472 10475 10479 10482 10485 10488 10490 10492 10494 10496 10497 10500 10502 10504 10505 10507 10509 10511 10512 10513 10515 10516 10517 10517 10519 10520 10521 10521 10522 10522 10522 10522 10523 10522 10522 10521 10521 10520 10519 10518 10518 10518
10293 10297 10302 10307 10311 10316 10321 10326 10330 10334 10337 10341 10347 10352 10357 10361 10364 10369 10373 10378 10382 10385 10389 10393 10397 10401 10405 10408 10412 10415 10419 10422 10425 10428 10430 10434 10437 10441 10444 10447 10451 10453 10456 10459 10462 10465 10467 10470 10474 10476 10478 10481 10484 10487 10488 10490 10491 10493 10495 10497 10499 10501 10503 10504 10506 10507 10509 10510 10511 10511 10513 10515 10515 10515 10516 10516 10516 10517 10517 10517 10516 10516 10516 10516 10513 10512 10512 10514
10295 10299 10303 10307 10312 10317 10323 10328 10332 10336 10340 10344 10349 10354 10358 10361 10365 10369 10373 10377 10381 10384 10387 10391 10395 10398 10402 10405 10408 10411 10414 10417 10420 10423 10425 10429 10433 10436 10439 10443 10446 10448 10451 10454 10457 10459 10461 10464 10467 10469 10471 10474 10478 10480 10482 10484 10486 10487 10488 10490 10492 10495 10496 10498 10499 10501 10502 10504 10505 10506 10507 10509 10509 10509 10510 10510 10511 10512 10512 10512 10511 10511 10511 10511 10509 10507 10508 10509
10297 10300 10304 10309 10314 10319 10324 10328 10333 10337 10341 10345 10350 10354 10357 10360 10363 10368 10372 10376 10379 10382 10385 10388 10391 10394 10398 10401 10404 10407 10410 10413 10416 10419 10423 10427 10431 10434 10437 10440 10443 10445 10447 10450 10452 10454 10456 10459 10462 10464 10466 10467 10469 10471 10474 10477 10479 10481 10482 10483 10485 10487 10490 10491 10493 10495 10496 10497 10499 10500 10501 10502 10503 10503 10504 10504 10505 10506 10507 10507 10506 10506 10507 10506 10504 10504 10504 10504